| time (UTC) | temp F | wind direction | speed knots | gust knots | rain 1hr in | rain 24hr in | rain mn in | humidity % | barometer mb |
| 20260507031234 | 60 | 263 | 4.3 | 10.4 | 0.00 | 0.04 | 0.00 | 54 | 1030.1 |
| 20260507030734 | 60 | 263 | 4.3 | 10.4 | 0.00 | 0.05 | 0.00 | 54 | 1030.1 |
| 20260507030232 | 60 | 263 | 3.5 | 10.4 | 0.00 | 0.05 | 0.00 | 53 | 1030.1 |
| 20260507025726 | 60 | 263 | 2.6 | 9.6 | 0.00 | 0.07 | 0.00 | 54 | 1030.2 |
| 20260507025208 | 60 | 263 | 2.6 | 9.6 | 0.00 | 0.09 | 0.00 | 58 | 1030.2 |
| 20260507024014 | 60 | 263 | 3.5 | 9.6 | 0.00 | 0.10 | 0.00 | 57 | 1030.4 |
| 20260507023456 | 59 | 263 | 2.6 | 7.8 | 0.00 | 0.10 | 0.00 | 58 | 1030.4 |
| 20260507023003 | 60 | 263 | 2.6 | 7.8 | 0.00 | 0.10 | 0.00 | 57 | 1030.4 |
| 20260507022451 | 60 | 263 | 2.6 | 8.7 | 0.00 | 0.10 | 0.00 | 57 | 1030.6 |
| 20260507020707 | 60 | 263 | 3.5 | 9.6 | 0.00 | 0.10 | 0.00 | 58 | 1030.6 |
| 20260507020158 | 59 | 263 | 4.3 | 9.6 | 0.00 | 0.10 | 0.00 | 58 | 1030.6 |
| 20260507015649 | 59 | 263 | 3.5 | 7.8 | 0.00 | 0.10 | 0.00 | 59 | 1030.7 |
| 20260507014527 | 58 | 263 | 4.3 | 8.7 | 0.00 | 0.10 | 0.00 | 56 | 1030.7 |
| 20260507014020 | 58 | 263 | 3.5 | 10.4 | 0.00 | 0.10 | 0.00 | 56 | 1030.7 |
| 20260507013521 | 58 | 263 | 4.3 | 10.4 | 0.00 | 0.10 | 0.00 | 56 | 1030.7 |
| 20260507013019 | 58 | 263 | 5.2 | 10.4 | 0.00 | 0.10 | 0.00 | 55 | 1030.7 |
| 20260507012523 | 59 | 263 | 4.3 | 10.4 | 0.00 | 0.10 | 0.00 | 54 | 1030.5 |
| 20260507011347 | 59 | 263 | 3.5 | 7.8 | 0.00 | 0.10 | 0.00 | 54 | 1030.2 |
| 20260507010837 | 60 | 263 | 2.6 | 8.7 | 0.00 | 0.10 | 0.00 | 54 | 1030.2 |
| 20260507010343 | 60 | 263 | 2.6 | 8.7 | 0.00 | 0.10 | 0.00 | 54 | 1030.2 |
| 20260507005845 | 60 | 263 | 2.6 | 8.7 | 0.00 | 0.10 | 0.00 | 55 | 1030.2 |
| 20260507005348 | 59 | 263 | 3.5 | 8.7 | 0.00 | 0.10 | 0.00 | 55 | 1030.2 |
| 20260507004841 | 59 | 263 | 2.6 | 7.8 | 0.00 | 0.10 | 0.00 | 56 | 1030.2 |
| 20260507004343 | 59 | 263 | 2.6 | 7.8 | 0.00 | 0.10 | 0.00 | 57 | 1030.2 |
| 20260507003828 | 59 | 263 | 2.6 | 7.8 | 0.00 | 0.10 | 0.00 | 58 | 1030.2 |
| 20260507003317 | 58 | 263 | 3.5 | 7.8 | 0.00 | 0.10 | 0.00 | 60 | 1030.2 |
| 20260507002804 | 58 | 263 | 3.5 | 7.8 | 0.00 | 0.10 | 0.00 | 60 | 1030.2 |
| 20260507002311 | 58 | 263 | 2.6 | 10.4 | 0.00 | 0.10 | 0.00 | 61 | 1030.2 |
| 20260507001751 | 57 | 263 | 1.7 | 10.4 | 0.00 | 0.10 | 0.00 | 63 | 1030.2 |
| 20260507001246 | 57 | 263 | 3.5 | 10.4 | 0.00 | 0.10 | 0.00 | 64 | 1030.2 |
| 20260507000750 | 57 | 263 | 3.5 | 10.4 | 0.00 | 0.10 | 0.00 | 65 | 1030.2 |
| 20260506235750 | 56 | 263 | 3.5 | 7.8 | 0.00 | 0.10 | 0.00 | 68 | 1030.2 |
| 20260506235255 | 56 | 263 | 2.6 | 7.8 | 0.00 | 0.10 | 0.00 | 69 | 1030.2 |
| 20260506233443 | 54 | 263 | 0.0 | 4.3 | 0.00 | 0.10 | 0.00 | 79 | 1030.1 |
| 20260506232936 | 53 | 263 | 0.0 | 0.0 | 0.00 | 0.10 | 0.00 | 81 | 1030.1 |
| 20260506232432 | 52 | 263 | 0.0 | 0.0 | 0.00 | 0.10 | 0.00 | 82 | 1030.1 |
| 20260506231914 | 51 | 263 | 0.0 | 0.0 | 0.00 | 0.10 | 0.00 | 83 | 1030.1 |
| 20260506230744 | 51 | 263 | 0.0 | 0.0 | 0.00 | 0.10 | 0.00 | 83 | 1030.1 |
| 20260506230250 | 50 | 263 | 0.0 | 0.0 | 0.00 | 0.10 | 0.00 | 84 | 1030.1 |
| 20260506225737 | 50 | 263 | 0.0 | 0.0 | 0.00 | 0.10 | 0.00 | 84 | 1029.7 |
| 20260506225236 | 50 | 263 | 0.0 | 0.0 | 0.00 | 0.10 | 0.00 | 83 | 1029.7 |
| 20260506224718 | 50 | 263 | 0.0 | 0.0 | 0.00 | 0.10 | 0.00 | 83 | 1029.7 |
| 20260506224213 | 50 | 263 | 0.0 | 0.0 | 0.00 | 0.10 | 0.00 | 84 | 1029.4 |
| 20260506223715 | 50 | 263 | 0.0 | 0.0 | 0.00 | 0.10 | 0.00 | 84 | 1029.4 |
| 20260506223207 | 49 | 263 | 0.0 | 0.0 | 0.00 | 0.10 | 0.00 | 84 | 1029.4 |
| 20260506222650 | 49 | 263 | 0.0 | 0.0 | 0.00 | 0.10 | 0.00 | 85 | 1029.2 |
| 20260506222147 | 49 | 263 | 0.0 | 0.0 | 0.00 | 0.10 | 0.00 | 84 | 1029.2 |
| 20260506221036 | 48 | 263 | 0.0 | 0.0 | 0.00 | 0.10 | 0.00 | 83 | 1029.1 |
| 20260506220539 | 48 | 263 | 0.0 | 0.9 | 0.00 | 0.10 | 0.00 | 83 | 1029.1 |
| 20260506220039 | 48 | 263 | 0.0 | 0.0 | 0.00 | 0.10 | 0.00 | 82 | 1029.1 |
| 20260506215545 | 48 | 263 | 0.0 | 0.0 | 0.00 | 0.10 | 0.00 | 82 | 1028.9 |
| 20260506215045 | 48 | 263 | 0.0 | 0.0 | 0.00 | 0.11 | 0.00 | 81 | 1028.9 |
| 20260506214537 | 48 | 263 | 0.0 | 0.0 | 0.00 | 0.11 | 0.00 | 80 | 1028.9 |
| 20260506213408 | 49 | 263 | 0.0 | 0.0 | 0.00 | 0.11 | 0.00 | 79 | 1028.7 |
| 20260506212849 | 49 | 263 | 0.0 | 0.0 | 0.00 | 0.11 | 0.00 | 78 | 1028.6 |
| 20260506212340 | 49 | 263 | 0.0 | 0.0 | 0.00 | 0.12 | 0.00 | 77 | 1028.6 |
| 20260506211232 | 49 | 263 | 0.0 | 0.0 | 0.00 | 0.12 | 0.00 | 76 | 1028.4 |
| 20260506210731 | 49 | 263 | 0.0 | 0.9 | 0.00 | 0.12 | 0.00 | 76 | 1028.4 |
| 20260506210224 | 50 | 263 | 0.0 | 0.9 | 0.00 | 0.12 | 0.00 | 75 | 1028.4 |
| 20260506205710 | 50 | 263 | 0.0 | 0.0 | 0.00 | 0.12 | 0.00 | 74 | 1028.2 |
| 20260506205154 | 50 | 263 | 0.0 | 0.0 | 0.00 | 0.12 | 0.00 | 74 | 1028.2 |
| 20260506204647 | 50 | 263 | 0.0 | 0.0 | 0.00 | 0.12 | 0.00 | 73 | 1028.2 |
| 20260506204141 | 51 | 263 | 0.0 | 0.0 | 0.00 | 0.12 | 0.00 | 73 | 1028.0 |
| 20260506203632 | 51 | 263 | 0.0 | 0.0 | 0.00 | 0.12 | 0.00 | 73 | 1028.0 |
| 20260506203121 | 51 | 263 | 0.0 | 0.0 | 0.00 | 0.12 | 0.00 | 74 | 1028.0 |
| 20260506201959 | 51 | 263 | 0.0 | 0.0 | 0.00 | 0.12 | 0.00 | 73 | 1028.0 |
| 20260506201505 | 52 | 263 | 0.0 | 0.0 | 0.00 | 0.12 | 0.00 | 73 | 1028.0 |
| 20260506201008 | 52 | 263 | 0.0 | 1.7 | 0.00 | 0.12 | 0.00 | 73 | 1028.0 |
| 20260506200518 | 52 | 263 | 0.9 | 2.6 | 0.00 | 0.12 | 0.00 | 73 | 1028.0 |
| 20260506200025 | 52 | 263 | 0.9 | 2.6 | 0.00 | 0.12 | 0.00 | 73 | 1028.0 |
| 20260506195511 | 52 | 263 | 0.9 | 3.5 | 0.00 | 0.12 | 0.00 | 73 | 1027.9 |
| 20260506195016 | 52 | 263 | 0.9 | 3.5 | 0.00 | 0.12 | 0.00 | 73 | 1027.9 |
| 20260506194504 | 52 | 263 | 1.7 | 5.2 | 0.00 | 0.12 | 0.00 | 73 | 1027.9 |
| 20260506194005 | 53 | 263 | 2.6 | 5.2 | 0.00 | 0.12 | 0.00 | 73 | 1027.6 |
| 20260506193510 | 53 | 263 | 2.6 | 9.6 | 0.00 | 0.12 | 0.00 | 72 | 1027.6 |
| 20260506193004 | 53 | 263 | 3.5 | 9.6 | 0.00 | 0.12 | 0.00 | 72 | 1027.6 |
| 20260506192510 | 53 | 263 | 4.3 | 9.6 | 0.00 | 0.12 | 0.00 | 72 | 1027.6 |
| 20260506192007 | 53 | 263 | 2.6 | 9.6 | 0.00 | 0.12 | 0.00 | 72 | 1027.6 |
| 20260506191513 | 52 | 263 | 1.7 | 4.3 | 0.00 | 0.12 | 0.00 | 72 | 1027.6 |
| 20260506190336 | 53 | 263 | 0.9 | 2.6 | 0.00 | 0.12 | 0.00 | 71 | 1027.4 |
| 20260506185201 | 53 | 263 | 0.9 | 4.3 | 0.00 | 0.12 | 0.00 | 70 | 1027.0 |
| 20260506183352 | 53 | 263 | 3.5 | 10.4 | 0.00 | 0.12 | 0.00 | 69 | 1027.0 |
| 20260506182837 | 54 | 263 | 3.5 | 10.4 | 0.00 | 0.12 | 0.00 | 68 | 1027.0 |
| 20260506182317 | 54 | 263 | 3.5 | 10.4 | 0.00 | 0.12 | 0.00 | 68 | 1027.0 |
| 20260506181812 | 54 | 263 | 3.5 | 10.4 | 0.00 | 0.12 | 0.00 | 68 | 1027.0 |
| 20260506181252 | 54 | 263 | 2.6 | 7.0 | 0.00 | 0.12 | 0.00 | 68 | 1027.0 |
| 20260506180141 | 53 | 263 | 1.7 | 5.2 | 0.00 | 0.12 | 0.00 | 67 | 1027.0 |
| 20260506175627 | 53 | 263 | 1.7 | 5.2 | 0.00 | 0.12 | 0.00 | 67 | 1027.0 |
| 20260506175120 | 53 | 263 | 1.7 | 5.2 | 0.00 | 0.12 | 0.00 | 68 | 1027.0 |
| 20260506174627 | 53 | 263 | 1.7 | 3.5 | 0.00 | 0.12 | 0.00 | 68 | 1027.0 |
| 20260506174111 | 53 | 263 | 1.7 | 4.3 | 0.00 | 0.12 | 0.00 | 68 | 1027.0 |
| 20260506173619 | 53 | 263 | 1.7 | 4.3 | 0.00 | 0.12 | 0.00 | 69 | 1027.0 |
| 20260506173108 | 53 | 263 | 1.7 | 5.2 | 0.00 | 0.12 | 0.00 | 69 | 1027.0 |
| 20260506172615 | 53 | 263 | 1.7 | 5.2 | 0.00 | 0.12 | 0.00 | 70 | 1027.0 |
| 20260506172123 | 53 | 263 | 1.7 | 5.2 | 0.00 | 0.12 | 0.00 | 71 | 1027.0 |
| 20260506170945 | 53 | 263 | 0.0 | 0.9 | 0.00 | 0.12 | 0.00 | 71 | 1027.0 |
| 20260506170428 | 53 | 263 | 0.0 | 0.0 | 0.00 | 0.12 | 0.00 | 71 | 1027.0 |
| 20260506165933 | 53 | 263 | 0.0 | 0.0 | 0.00 | 0.12 | 0.00 | 71 | 1027.0 |
| 20260506165421 | 53 | 263 | 0.0 | 0.0 | 0.00 | 0.12 | 0.00 | 71 | 1027.1 |
| 20260506164921 | 53 | 263 | 0.0 | 0.0 | 0.00 | 0.12 | 0.00 | 70 | 1027.1 |
| 20260506164427 | 53 | 263 | 0.0 | 0.0 | 0.00 | 0.12 | 0.00 | 70 | 1027.1 |
| 20260506163920 | 53 | 263 | 0.0 | 0.0 | 0.00 | 0.12 | 0.00 | 70 | 1027.0 |
| 20260506163419 | 53 | 263 | 0.0 | 0.0 | 0.00 | 0.12 | 0.00 | 69 | 1027.0 |
| 20260506162909 | 53 | 263 | 0.0 | 0.0 | 0.00 | 0.12 | 0.00 | 69 | 1027.0 |
| 20260506161730 | 54 | 263 | 0.0 | 0.0 | 0.00 | 0.12 | 0.00 | 67 | 1027.0 |
| 20260506161236 | 54 | 263 | 0.0 | 0.0 | 0.00 | 0.12 | 0.00 | 67 | 1027.0 |
| 20260506160735 | 54 | 263 | 0.9 | 4.3 | 0.00 | 0.12 | 0.00 | 67 | 1027.0 |
| 20260506154445 | 55 | 263 | 2.6 | 8.7 | 0.00 | 0.12 | 0.00 | 64 | 1026.9 |
| 20260506153927 | 55 | 263 | 2.6 | 8.7 | 0.00 | 0.12 | 0.00 | 64 | 1026.9 |
| 20260506153427 | 55 | 263 | 3.5 | 9.6 | 0.00 | 0.12 | 0.00 | 64 | 1026.9 |
| 20260506152913 | 55 | 263 | 3.5 | 9.6 | 0.00 | 0.12 | 0.00 | 63 | 1026.9 |
| 20260506152408 | 55 | 263 | 4.3 | 13.9 | 0.00 | 0.12 | 0.00 | 63 | 1026.9 |
| 20260506151912 | 55 | 263 | 4.3 | 13.9 | 0.00 | 0.12 | 0.00 | 62 | 1026.9 |
| 20260506151414 | 55 | 263 | 6.1 | 13.9 | 0.00 | 0.12 | 0.00 | 62 | 1026.9 |
| 20260506150250 | 55 | 263 | 2.6 | 10.4 | 0.00 | 0.12 | 0.00 | 60 | 1026.9 |
| 20260506145731 | 55 | 263 | 1.7 | 5.2 | 0.00 | 0.12 | 0.00 | 60 | 1026.8 |
| 20260506145224 | 55 | 263 | 1.7 | 4.3 | 0.00 | 0.12 | 0.00 | 60 | 1026.8 |
| 20260506144717 | 55 | 263 | 2.6 | 6.1 | 0.00 | 0.12 | 0.00 | 60 | 1026.8 |
| 20260506144156 | 55 | 263 | 2.6 | 6.1 | 0.00 | 0.12 | 0.00 | 60 | 1026.8 |
| 20260506143649 | 55 | 263 | 2.6 | 9.6 | 0.00 | 0.12 | 0.00 | 59 | 1026.8 |
| 20260506143145 | 55 | 263 | 2.6 | 9.6 | 0.00 | 0.12 | 0.00 | 60 | 1026.8 |
| 20260506142628 | 55 | 263 | 4.3 | 13.0 | 0.00 | 0.12 | 0.12 | 59 | 1026.8 |
| 20260506141502 | 55 | 263 | 5.2 | 13.0 | 0.00 | 0.12 | 0.12 | 60 | 1026.8 |
| 20260506141001 | 55 | 263 | 4.3 | 13.0 | 0.00 | 0.12 | 0.12 | 60 | 1026.9 |
| 20260506140441 | 55 | 263 | 2.6 | 11.3 | 0.00 | 0.12 | 0.12 | 61 | 1026.9 |
| 20260506135946 | 55 | 263 | 3.5 | 7.8 | 0.00 | 0.12 | 0.12 | 62 | 1026.9 |
| 20260506135455 | 55 | 263 | 4.3 | 12.2 | 0.00 | 0.12 | 0.12 | 62 | 1026.6 |
| 20260506135000 | 55 | 263 | 5.2 | 12.2 | 0.00 | 0.12 | 0.12 | 62 | 1026.6 |
| 20260506134453 | 55 | 263 | 6.1 | 12.2 | 0.00 | 0.12 | 0.12 | 63 | 1026.6 |
| 20260506133948 | 55 | 263 | 5.2 | 12.2 | 0.00 | 0.12 | 0.12 | 64 | 1026.5 |
| 20260506133431 | 55 | 263 | 4.3 | 10.4 | 0.00 | 0.12 | 0.12 | 65 | 1026.5 |
| 20260506132911 | 55 | 263 | 3.5 | 10.4 | 0.00 | 0.12 | 0.12 | 65 | 1026.4 |
| 20260506131738 | 55 | 263 | 2.6 | 8.7 | 0.00 | 0.12 | 0.12 | 67 | 1026.4 |
| 20260506131218 | 55 | 263 | 3.5 | 8.7 | 0.00 | 0.12 | 0.12 | 67 | 1026.4 |
| 20260506130707 | 55 | 263 | 3.5 | 9.6 | 0.00 | 0.12 | 0.12 | 68 | 1026.4 |
| 20260506130147 | 55 | 263 | 3.5 | 9.6 | 0.00 | 0.12 | 0.12 | 68 | 1026.4 |
| 20260506125026 | 55 | 263 | 3.5 | 10.4 | 0.00 | 0.12 | 0.12 | 70 | 1026.3 |
| 20260506124528 | 55 | 263 | 3.5 | 10.4 | 0.00 | 0.12 | 0.12 | 70 | 1026.3 |
| 20260506124011 | 55 | 263 | 2.6 | 9.6 | 0.00 | 0.12 | 0.12 | 70 | 1026.1 |
| 20260506123506 | 55 | 263 | 2.6 | 9.6 | 0.00 | 0.12 | 0.12 | 70 | 1026.1 |
| 20260506122952 | 55 | 263 | 2.6 | 9.6 | 0.00 | 0.12 | 0.12 | 70 | 1026.1 |
| 20260506122454 | 56 | 263 | 2.6 | 9.6 | 0.00 | 0.12 | 0.12 | 70 | 1026.0 |
| 20260506121333 | 56 | 263 | 2.6 | 8.7 | 0.00 | 0.12 | 0.12 | 70 | 1025.9 |
| 20260506120815 | 56 | 263 | 3.5 | 9.6 | 0.00 | 0.12 | 0.12 | 70 | 1025.9 |
| 20260506120313 | 56 | 263 | 3.5 | 9.6 | 0.00 | 0.12 | 0.12 | 71 | 1025.9 |
| 20260506115753 | 56 | 263 | 3.5 | 9.6 | 0.00 | 0.12 | 0.12 | 73 | 1025.6 |
| 20260506115252 | 56 | 263 | 3.5 | 9.6 | 0.00 | 0.12 | 0.12 | 73 | 1025.6 |
| 20260506114251 | 56 | 263 | 3.5 | 8.7 | 0.00 | 0.12 | 0.12 | 75 | 1025.5 |
| 20260506113740 | 56 | 263 | 2.6 | 8.7 | 0.00 | 0.12 | 0.12 | 76 | 1025.5 |
| 20260506113231 | 56 | 263 | 2.6 | 8.7 | 0.00 | 0.12 | 0.12 | 77 | 1025.5 |
| 20260506112740 | 56 | 263 | 3.5 | 8.7 | 0.00 | 0.12 | 0.12 | 78 | 1025.4 |
| 20260506112224 | 56 | 263 | 3.5 | 8.7 | 0.00 | 0.12 | 0.12 | 78 | 1025.4 |
| 20260506111053 | 56 | 263 | 2.6 | 8.7 | 0.00 | 0.12 | 0.12 | 79 | 1025.4 |
| 20260506110541 | 56 | 263 | 3.5 | 8.7 | 0.00 | 0.12 | 0.12 | 79 | 1025.4 |
| 20260506110022 | 56 | 263 | 3.5 | 8.7 | 0.00 | 0.12 | 0.12 | 79 | 1025.4 |
| 20260506105525 | 56 | 263 | 3.5 | 7.0 | 0.00 | 0.12 | 0.12 | 79 | 1025.3 |
| 20260506105014 | 56 | 263 | 3.5 | 7.0 | 0.00 | 0.12 | 0.12 | 79 | 1025.3 |
| 20260506104503 | 56 | 263 | 2.6 | 11.3 | 0.00 | 0.12 | 0.12 | 79 | 1025.3 |
| 20260506104006 | 56 | 263 | 3.5 | 11.3 | 0.00 | 0.12 | 0.12 | 79 | 1025.0 |
| 20260506103459 | 56 | 263 | 3.5 | 11.3 | 0.00 | 0.12 | 0.12 | 80 | 1025.0 |
| 20260506102958 | 57 | 263 | 3.5 | 11.3 | 0.00 | 0.12 | 0.12 | 80 | 1025.0 |
| 20260506102452 | 57 | 263 | 3.5 | 8.7 | 0.00 | 0.12 | 0.12 | 80 | 1024.9 |
| 20260506095426 | 57 | 263 | 3.5 | 9.6 | 0.00 | 0.12 | 0.12 | 82 | 1024.4 |
| 20260506094926 | 57 | 263 | 3.5 | 9.6 | 0.00 | 0.12 | 0.12 | 82 | 1024.4 |
| 20260506094417 | 57 | 263 | 3.5 | 15.6 | 0.00 | 0.12 | 0.12 | 83 | 1024.4 |
| 20260506093917 | 57 | 263 | 4.3 | 15.6 | 0.00 | 0.12 | 0.12 | 83 | 1024.4 |
| 20260506092744 | 58 | 263 | 5.2 | 15.6 | 0.00 | 0.12 | 0.12 | 83 | 1024.2 |
| 20260506091606 | 58 | 263 | 4.3 | 13.0 | 0.00 | 0.12 | 0.12 | 83 | 1024.2 |
| 20260506090426 | 59 | 263 | 5.2 | 13.0 | 0.00 | 0.12 | 0.12 | 82 | 1023.8 |
| 20260506085935 | 59 | 263 | 5.2 | 13.0 | 0.00 | 0.12 | 0.12 | 82 | 1023.8 |
| 20260506085437 | 59 | 263 | 4.3 | 13.9 | 0.00 | 0.12 | 0.12 | 81 | 1023.4 |
| 20260506084923 | 59 | 263 | 5.2 | 13.9 | 0.00 | 0.12 | 0.12 | 81 | 1023.4 |
| 20260506084428 | 60 | 263 | 6.1 | 13.9 | 0.00 | 0.12 | 0.12 | 80 | 1023.4 |
| 20260506083914 | 60 | 263 | 7.0 | 13.9 | 0.00 | 0.12 | 0.12 | 79 | 1023.2 |
| 20260506083354 | 60 | 263 | 5.2 | 13.0 | 0.00 | 0.12 | 0.12 | 79 | 1023.2 |
| 20260506082901 | 61 | 263 | 4.3 | 12.2 | 0.00 | 0.12 | 0.12 | 78 | 1022.9 |
| 20260506082359 | 61 | 263 | 3.5 | 12.2 | 0.00 | 0.12 | 0.12 | 77 | 1022.9 |
| 20260506081845 | 61 | 263 | 3.5 | 13.0 | 0.00 | 0.12 | 0.12 | 76 | 1022.9 |
| 20260506081350 | 61 | 263 | 5.2 | 13.0 | 0.00 | 0.12 | 0.12 | 76 | 1022.7 |
| 20260506080840 | 61 | 263 | 5.2 | 13.0 | 0.00 | 0.12 | 0.12 | 76 | 1022.7 |
| 20260506080331 | 62 | 263 | 4.3 | 12.2 | 0.00 | 0.12 | 0.12 | 75 | 1022.7 |
| 20260506073129 | 63 | 263 | 4.3 | 12.2 | 0.00 | 0.12 | 0.12 | 70 | 1022.4 |
| 20260506072617 | 63 | 263 | 3.5 | 12.2 | 0.00 | 0.12 | 0.12 | 69 | 1022.3 |
| 20260506072112 | 64 | 263 | 3.5 | 12.2 | 0.00 | 0.12 | 0.12 | 68 | 1022.3 |
| 20260506070942 | 64 | 263 | 4.3 | 12.2 | 0.00 | 0.12 | 0.12 | 67 | 1022.2 |
| 20260506070441 | 64 | 263 | 4.3 | 9.6 | 0.00 | 0.12 | 0.12 | 66 | 1022.2 |
| 20260506062052 | 64 | 263 | 4.3 | 11.3 | 0.00 | 0.12 | 0.12 | 69 | 1022.2 |
| 20260506061543 | 64 | 263 | 4.3 | 11.3 | 0.00 | 0.12 | 0.12 | 70 | 1022.2 |
| 20260506061046 | 64 | 263 | 5.2 | 11.3 | 0.00 | 0.12 | 0.12 | 70 | 1022.0 |
| 20260506051345 | 62 | 263 | 3.5 | 10.4 | 0.00 | 0.12 | 0.12 | 81 | 1021.8 |
| 20260506050845 | 62 | 263 | 4.3 | 10.4 | 0.00 | 0.12 | 0.12 | 81 | 1021.8 |
| 20260506050340 | 62 | 263 | 5.2 | 13.0 | 0.00 | 0.12 | 0.12 | 82 | 1021.8 |
| 20260506044707 | 61 | 263 | 3.5 | 13.0 | 0.00 | 0.12 | 0.12 | 84 | 1021.8 |
| 20260506044210 | 62 | 263 | 2.6 | 8.7 | 0.00 | 0.12 | 0.12 | 86 | 1021.8 |
| 20260506043043 | 61 | 263 | 2.6 | 12.2 | 0.03 | 0.12 | 0.12 | 86 | 1021.8 |
| 20260506042537 | 61 | 263 | 3.5 | 12.2 | 0.06 | 0.12 | 0.12 | 86 | 1022.0 |
| 20260506042031 | 61 | 263 | 5.2 | 12.2 | 0.08 | 0.12 | 0.12 | 85 | 1022.0 |
| 20260506040925 | 62 | 263 | 4.3 | 11.3 | 0.00 | 0.08 | 0.08 | 85 | 1021.7 |
| 20260506040405 | 62 | 263 | 3.5 | 11.3 | 0.00 | 0.08 | 0.08 | 86 | 1021.7 |
| 20260506035857 | 62 | 263 | 3.5 | 11.3 | 0.00 | 0.08 | 0.08 | 86 | 1021.8 |
| 20260506035357 | 61 | 263 | 3.5 | 7.8 | 0.00 | 0.08 | 0.08 | 87 | 1021.8 |
| 20260506034847 | 61 | 263 | 2.6 | 9.6 | 0.00 | 0.08 | 0.08 | 87 | 1021.8 |
| 20260506034341 | 61 | 263 | 3.5 | 9.6 | 0.00 | 0.08 | 0.08 | 87 | 1022.1 |
| 20260506033850 | 60 | 263 | 4.3 | 13.0 | 0.00 | 0.08 | 0.08 | 87 | 1022.1 |
| 20260506033359 | 60 | 263 | 3.5 | 13.0 | 0.00 | 0.08 | 0.08 | 88 | 1022.1 |
| 20260506032851 | 60 | 263 | 4.3 | 13.0 | 0.00 | 0.08 | 0.08 | 88 | 1022.2 |
| 20260506032351 | 60 | 263 | 4.3 | 13.0 | 0.03 | 0.08 | 0.08 | 87 | 1022.2 |
| 20260506031858 | 60 | 263 | 4.3 | 11.3 | 0.05 | 0.08 | 0.08 | 86 | 1022.2 |